Oakland, CA

4:25 PM PDT on June 20, 2018 (GMT -0700)
Metro Oakland International

Weather History for KOAK - October, 2017

Change the Weather History Date:

Saturday, October 28, 2017

  Actual Average Record
Temperature  
Mean Temperature 59 °F 58 °F  
Max Temperature 68 °F 68 °F 85 °F (1976)
Min Temperature 50 °F 50 °F 40 °F (1975)
Degree Days  
Heating Degree Days 6 7  
Month to date heating degree days 96 130  
Since 1 July heating degree days 169 330  
Cooling Degree Days 0 0  
Month to date cooling degree days 22 12  
Year to date cooling degree days 312 137  
Growing Degree Days 8 (Base 50)    
Moisture  
Dew Point 53 °F    
Average Humidity 84    
Maximum Humidity 100    
Minimum Humidity 68    
Precipitation  
Precipitation 0.00 in 0.06 in 0.72 in (1964)
Month to date precipitation 0.13 0.98  
Year to date precipitation 20.25 14.48  
Sea Level Pressure  
Sea Level Pressure 29.93 in    
Wind  
Wind Speed 7 mph (NW)    
Max Wind Speed 18 mph    
Max Gust Speed 21 mph    
Visibility 9 miles    
Events Fog    
T = Trace of Precipitation, MM = Missing Value Source: NWS Daily Summary

Daily Weather History Graph

Daily Weather History Graph

Search for Another Location

Airport or City:

Astronomy

Oct. 28, 2017 Rise Set
Actual Time 7:30 AM PDT 6:14 PM PDT
Civil Twilight 7:03 AM PDT 6:41 PM PDT
Nautical Twilight 6:32 AM PDT 7:12 PM PDT
Astronomical Twilight 6:02 AM PDT 7:42 PM PDT
Moon 2:45 PM PDT (10/28) 12:32 AM PDT (10/28)
Length of Visible Light 11h 37m
Length of Day
10h 43m
First Quarter, 58% of the Moon is Illuminated
Oct 28
First Quarter
Nov 3
Full
Nov 10
Last Quarter
Nov 18
New
Nov 26
First Quarter

Hourly Weather History & Observations

Time (PDT) Temp. Dew Point Humidity Pressure Visibility Wind Dir Wind Speed Gust Speed Precip Events Conditions
12:53 AM 54.0 °F 54.0 °F 100% 29.94 in 10.0 mi NW 3.5 mph - N/A   Partly Cloudy
1:53 AM 54.0 °F 54.0 °F 100% 29.94 in 10.0 mi NW 3.5 mph - N/A   Partly Cloudy
2:53 AM 53.1 °F 53.1 °F 100% 29.94 in 10.0 mi NW 5.8 mph - N/A   Partly Cloudy
3:53 AM 52.0 °F 52.0 °F 100% 29.94 in 10.0 mi NNW 4.6 mph - N/A   Scattered Clouds
4:53 AM 51.1 °F 51.1 °F 100% 29.94 in 9.0 mi North 3.5 mph - N/A Fog Shallow Fog
5:53 AM 52.0 °F 52.0 °F 100% 29.95 in 9.0 mi North 3.5 mph - N/A Fog Shallow Fog
6:13 AM 50.0 °F 50.0 °F 100% 29.94 in 9.0 mi North 3.5 mph - N/A Fog Shallow Fog
6:47 AM 51.8 °F 51.8 °F 100% 29.95 in 8.0 mi Calm Calm - N/A Fog Shallow Fog
6:53 AM 50.0 °F 50.0 °F 100% 29.95 in 8.0 mi Calm Calm - N/A Fog Shallow Fog
7:28 AM 50.0 °F 50.0 °F 100% 29.95 in 7.0 mi North 4.6 mph - N/A   Mostly Cloudy
7:53 AM 51.1 °F 51.1 °F 100% 29.96 in 7.0 mi North 3.5 mph - N/A Fog Shallow Fog
8:11 AM 52.0 °F 52.0 °F 100% 29.96 in 4.0 mi Calm Calm - N/A Fog Shallow Fog
8:53 AM 54.0 °F 54.0 °F 100% 29.97 in 4.0 mi North 3.5 mph - N/A Fog Shallow Fog
9:53 AM 55.9 °F 55.9 °F 100% 29.97 in 5.0 mi Calm Calm - N/A   Mostly Cloudy
10:02 AM 55.9 °F 55.0 °F 97% 29.97 in 5.0 mi West 4.6 mph - N/A   Partly Cloudy
10:53 AM 57.9 °F 55.0 °F 90% 29.97 in 7.0 mi WNW 4.6 mph - N/A   Partly Cloudy
11:53 AM 61.0 °F 53.1 °F 75% 29.96 in 10.0 mi West 5.8 mph - N/A   Clear
12:53 PM 62.1 °F 55.0 °F 78% 29.93 in 10.0 mi WSW 6.9 mph - N/A   Clear
1:53 PM 64.9 °F 55.0 °F 70% 29.91 in 10.0 mi West 6.9 mph - N/A   Clear
2:53 PM 66.0 °F 55.0 °F 68% 29.89 in 10.0 mi WNW 11.5 mph - N/A   Clear
3:53 PM 64.9 °F 55.0 °F 70% 29.89 in 10.0 mi WNW 16.1 mph - N/A   Partly Cloudy
4:53 PM 61.0 °F 54.0 °F 78% 29.89 in 10.0 mi WNW 12.7 mph - N/A   Partly Cloudy
5:53 PM 57.9 °F 54.0 °F 87% 29.89 in 10.0 mi WNW 13.8 mph - N/A   Partly Cloudy
6:53 PM 55.9 °F 53.1 °F 90% 29.90 in 10.0 mi WNW 13.8 mph - N/A   Partly Cloudy
7:53 PM 55.0 °F 54.0 °F 96% 29.91 in 10.0 mi WNW 9.2 mph - N/A   Partly Cloudy
8:45 PM 54.0 °F 53.1 °F 97% 29.92 in 10.0 mi WNW 15.0 mph - N/A   Mostly Cloudy
8:53 PM 54.0 °F 53.1 °F 97% 29.92 in 10.0 mi WNW 13.8 mph - N/A   Mostly Cloudy
9:53 PM 54.0 °F 54.0 °F 100% 29.93 in 10.0 mi NNW 4.6 mph - N/A   Overcast
10:53 PM 54.0 °F 53.1 °F 97% 29.93 in 10.0 mi WNW 8.1 mph - N/A   Overcast
11:53 PM 54.0 °F 53.1 °F 97% 29.93 in 10.0 mi NNE 4.6 mph - N/A   Overcast